SCP
0 0 0 0 0 0 0 0 0 0 0 0 0 0 0 0 0 0 0 0 0 0 0 0 0 0 0 0 0 0 0 0 0 0 0 0 0 0 0 0 0 0 0 0 0 0 0 0 0
0 0 0 0 0 0 0 0 0 0 0 0 0 0 0 0 0 0 0 0 0 0 0 0 0 0 0 0 0 0 0 0 0 0 0 0 0 0 0 0 0 0 0 0 0 0 0 0 0
0 0 0 0 0 0 0 0 0 0 0 0 0 0 0 0 0 0 0 0 0 0 0 0 0 0 0 0 0 0 0 0 0 0 0 0 0 0 0 0 0 0 0 0 0 0 0 0 0
0 0 0 0 0 0 0 0 0 0 0 0 0 0 0 0 0 0 0 0 0 0 0 0 0 0 0 0 0 0 0 0 0 0 0 0 0 0 0 0 0 0 0 0 0 0 0 0 0
0 0 0 0 0 0 0 0 0 0 0 0 0 0 0 0 0 0 0 0 0 0 0 0 0 0 0 0 0 0 0 0 0 0 0 0 0 0 0 0 0 0 0 0 0 0 0 0 0
0 0 0 0 0 0 0 0 0 0 0 0 0 0 0 0 0 0 0 0 0 0 0 0 0 0 0 0 0 0 0 0 0 0 0 0 0 0 0 0 0 0 0 0 0 0 0 0 0
0 0 0 0 0 0 0 0 0 0 0 0 0 0 0 0 0 0 0 0 0 0 0 0 0 0 0 0 0 0 0 0 0 0 0 0 0 0 0 0 0 0 0 0 0 0 0 0 0
0 0 0 0 0 0 0 0 0 0 0 0 0 0 0 0 0 0 0 0 0 0 0 0 0 0 0 0 0 0 0 0 0 0 0 0 0 0 0 0 0 0 0 0 0 0 0 0 0
0 0 0 0 0 0 0 0 0 0 0 0 0 0 0 0 0 0 0 0 0 0 0 0 0 0 0 0 0 0 0 0 0 0 0 0 0 0 0 0 0 0 0 0 0 0 0 0 0
0 0 0 0 0 0 0 0 0 0 0 0 0 0 0 0 1 0 0 0 0 0 0 0 0 0 0 0 0 0 0 0 0 0 0 0 0 0 0 0 0 0 0 0 0 0 0 0 0
0 0 0 0 0 0 0 0 0 0 0 0 0 0 0 0 0 0 0 0 0 0 0 0 0 0 0 0 0 0 0 0 0 0 0 0 0 0 0 0 0 0 0 0 0 0 0 0 0
0 0 0 0 0 0 0 0 0 0 0 0 0 1 1 1 0 0 0 0 0 0 0 0 0 0 0 0 0 0 0 0 0 0 0 0 0 0 0 0 0 0 0 0 0 0 0 0 0
0 0 0 0 0 0 0 0 0 0 0 0 0 1 1 0 0 0 0 0 0 0 0 0 0 0 0 0 0 0 0 0 0 0 0 0 0 0 0 0 0 0 0 0 0 0 0 0 0
0 0 0 0 0 0 0 0 0 0 0 0 0 0 0 0 0 0 0 0 0 0 0 0 0 0 0 0 0 0 0 0 0 0 0 0 0 0 0 0 0 0 0 0 0 0 0 0 0
0 0 0 0 0 0 0 0 0 0 0 0 0 0 0 0 0 0 0 0 0 0 0 0 0 0 0 0 0 0 0 0 0 0 0 0 0 0 0 0 0 0 0 0 0 0 0 0 0
0 0 0 0 0 0 0 0 0 0 0 0 0 0 0 0 0 0 0 0 0 0 0 0 0 0 0 0 0 0 0 0 0 0 0 0 0 0 0 0 0 0 0 0 0 0 0 0 0
0 0 0 0 0 0 0 0 0 0 0 0 0 0 0 0 0 0 0 0 0 0 0 0 0 0 0 0 0 0 0 0 0 0 0 0 0 0 0 0 0 0 0 0 0 0 0 0 0
0 0 0 0 0 0 0 0 0 0 0 0 0 0 0 0 0 0 0 0 0 0 0 0 0 0 0 0 0 0 0 0 0 0 0 0 0 0 0 0 0 0 0 0 0 0 0 0 0
0 0 0 0 0 0 0 0 0 0 0 0 0 0 0 0 0 0 1 1 0 0 0 0 0 0 0 0 0 0 0 0 0 0 0 0 0 0 0 0 0 0 0 0 0 0 0 0 0
0 0 0 0 0 0 0 0 0 0 0 0 0 0 0 0 0 0 1 1 1 1 0 0 0 0 0 0 0 0 0 0 0 0 0 0 0 0 0 0 0 0 0 0 0 0 0 0 0
0 0 0 0 0 0 0 0 0 0 0 0 0 0 0 0 0 0 0 1 1 1 1 1 1 0 0 0 0 0 0 0 0 0 0 0 0 0 0 0 0 0 1 0 0 0 0 0 0
0 0 0 0 0 0 0 0 0 0 0 0 0 0 0 0 0 0 0 1 1 1 1 1 1 1 0 0 0 0 0 0 0 0 0 0 0 0 0 0 0 0 0 0 0 0 0 0 0
0 0 0 0 0 0 0 0 0 0 0 0 0 0 0 0 0 0 0 0 1 1 1 1 1 1 1 0 0 0 0 0 0 0 0 0 0 0 0 0 0 0 0 0 0 0 0 0 0
0 0 0 0 0 0 0 0 0 0 0 0 0 0 0 0 0 0 0 0 1 1 1 1 1 1 1 1 0 0 0 0 0 0 0 0 0 0 0 0 0 0 0 0 0 0 0 0 0
0 0 0 0 0 0 0 0 0 0 0 0 0 0 0 0 0 0 0 0 0 1 1 1 1 1 1 1 1 1 0 0 0 0 0 0 0 0 0 0 0 0 0 0 0 0 0 0 0
0 0 0 0 0 0 0 0 0 0 0 0 0 0 0 0 0 0 0 0 0 1 1 1 1 1 1 1 1 1 1 1 0 0 0 0 0 0 0 0 0 0 0 0 0 0 0 0 0
0 0 0 0 0 0 0 0 0 0 0 0 0 0 0 0 0 0 0 0 0 0 1 1 1 1 1 1 1 1 1 1 1 0 0 0 0 0 0 0 0 0 0 0 0 0 0 0 0
0 0 0 0 0 0 0 0 0 0 0 0 0 0 0 0 0 0 0 0 0 0 1 1 1 1 1 1 0 1 1 1 1 0 0 0 0 0 0 0 0 0 0 0 0 0 0 0 0
0 0 0 0 0 0 0 0 0 0 0 0 0 0 0 0 0 0 0 0 0 0 0 1 1 1 1 0 0 0 0 0 0 0 0 0 0 0 0 0 0 0 0 0 0 0 0 0 0
0 0 0 0 0 0 0 0 0 0 0 0 0 0 0 0 0 0 0 0 0 0 0 0 0 0 0 0 0 0 0 0 0 0 0 0 0 0 0 0 0 0 0 0 0 0 0 0 0
Wind_Speed
16 9 1 4 6 4 1 3 4 3 2 1 4 9 8 4 3 4 3 11 13 12 10 11 12 14 14 14 13 13 12 12 12 12 12 12 12 12 12 12 12 12 12 12 12 12 11 10 10
9 4 4 5 5 1 3 2 3 3 5 4 6 6 6 2 2 7 6 11 15 13 10 10 12 14 14 14 13 13 12 12 12 12 12 12 12 11 11 11 11 11 11 11 10 10 10 9 8
8 2 4 4 3 4 4 3 5 2 3 3 5 5 5 5 5 6 8 14 13 11 9 10 13 14 15 14 13 13 12 12 12 12 12 11 11 11 11 10 10 9 9 9 9 9 8 7 7
4 5 5 3 2 4 6 6 5 5 2 3 6 5 3 3 6 7 14 14 13 10 9 11 13 15 15 14 13 13 12 12 12 12 11 11 11 10 10 9 9 9 8 8 8 7 7 6 5
4 4 3 1 3 3 3 6 6 6 5 3 5 5 2 2 6 14 14 13 13 10 8 10 13 13 14 14 13 13 12 12 12 11 11 11 10 10 9 9 9 8 7 7 7 6 5 4 3
4 4 2 2 4 3 3 5 5 4 4 4 6 6 2 2 9 12 12 12 12 11 9 9 12 12 12 12 12 12 12 12 11 11 11 10 10 9 9 8 8 8 7 6 6 5 4 3 2
3 3 3 4 3 3 4 4 6 5 5 6 8 7 3 4 7 9 10 10 10 10 9 7 8 9 11 11 10 10 10 10 10 10 10 9 8 8 7 7 7 7 7 6 6 5 4 3 2
4 3 2 3 4 5 3 2 4 6 5 4 7 10 8 8 7 8 9 9 9 9 9 8 7 7 7 7 10 10 10 9 9 9 9 8 8 7 7 6 6 7 7 6 6 5 5 4 4
3 3 5 5 5 4 2 1 1 2 5 3 2 6 7 13 11 10 8 6 8 9 8 8 8 7 7 6 8 8 9 9 9 8 9 8 4 4 5 6 7 7 7 7 6 6 6 5 5
3 5 8 5 3 3 2 2 2 3 3 2 3 3 8 13 13 12 11 11 12 12 10 9 9 8 7 7 5 4 5 5 5 5 6 4 4 4 5 7 8 8 7 7 7 7 6 5 3
5 7 5 4 3 2 2 3 1 6 4 6 8 10 12 12 12 13 12 11 11 11 10 10 10 9 8 5 5 4 3 4 5 6 6 4 4 3 3 3 4 5 6 4 4 4 3 3 3
4 5 4 3 3 2 3 2 2 4 6 6 11 17 15 15 15 15 14 12 9 10 11 11 10 9 9 7 6 5 4 4 4 5 6 5 3 3 3 3 3 3 3 3 3 3 4 4 5
6 4 4 4 3 3 3 3 3 6 5 2 8 13 15 15 14 12 11 10 10 11 11 11 11 11 9 8 6 7 6 6 6 5 6 6 5 5 4 3 3 4 3 4 4 4 5 5 5
5 5 5 5 5 3 4 5 3 7 3 4 9 13 14 15 15 11 10 11 12 12 12 11 11 11 10 9 7 7 7 6 6 6 7 8 6 5 5 4 4 4 4 4 5 5 5 5 4
2 3 6 6 5 4 2 8 9 8 3 5 8 10 12 12 12 14 14 14 14 13 12 12 12 11 11 10 9 7 7 7 6 6 7 8 7 7 6 5 5 5 5 5 4 5 4 4 4
1 3 7 7 6 5 6 14 9 6 6 8 8 9 10 12 13 13 13 12 12 11 11 12 11 11 12 10 9 7 6 7 6 6 6 9 9 8 6 5 5 5 4 4 4 4 4 4 4
4 8 9 6 6 6 9 11 7 6 7 9 9 9 10 10 11 11 11 12 12 13 12 12 12 12 12 10 8 7 6 7 6 6 6 7 9 8 7 6 5 5 4 4 4 4 4 4 4
8 7 7 9 5 7 10 12 7 6 7 10 9 9 10 11 13 11 11 11 11 11 11 11 11 11 10 8 6 5 6 6 5 6 6 8 8 9 7 6 6 5 4 4 4 5 4 4 4
4 6 8 6 4 6 12 15 11 8 8 10 10 10 10 11 10 9 9 10 9 9 10 11 11 10 8 6 7 7 7 6 5 6 7 8 8 8 8 6 6 6 6 6 6 5 5 5 2
8 8 8 4 3 5 8 14 11 11 12 12 13 13 12 10 7 7 8 8 9 10 10 11 11 10 9 9 7 5 4 4 5 4 6 8 8 8 8 8 7 7 6 7 7 6 4 3 4
12 12 9 5 3 3 4 10 10 10 10 11 12 11 11 12 11 9 8 9 9 9 10 10 11 10 10 9 5 3 3 2 3 5 6 7 8 8 8 8 7 7 7 7 7 7 7 5 4
14 10 7 6 4 5 4 8 9 8 10 13 13 11 12 11 10 9 8 8 9 10 8 8 8 8 8 8 7 8 7 8 8 6 5 5 6 7 7 7 7 7 6 7 6 6 6 6 5
6 5 7 8 7 7 6 7 10 6 12 14 14 13 12 11 10 10 9 9 8 8 7 7 6 6 6 7 9 9 7 7 4 3 4 5 5 5 6 6 6 7 6 6 6 5 6 6 6
4 2 2 3 4 12 13 10 11 8 13 10 11 12 11 10 9 8 7 6 6 6 6 6 6 6 6 7 7 8 8 7 5 5 5 5 4 4 5 5 5 6 5 6 6 6 6 6 6
7 6 4 5 8 11 8 10 13 9 9 11 11 11 10 9 8 8 7 6 6 6 6 6 7 6 6 6 7 7 8 7 7 6 5 4 3 4 5 5 5 5 5 5 5 5 5 6 5
10 11 9 8 7 5 6 12 11 9 8 8 8 8 8 8 7 7 7 6 6 6 6 6 6 6 5 6 6 6 6 5 4 5 4 4 4 4 3 4 4 4 4 4 4 4 4 3 4
8 9 6 3 2 4 7 7 9 5 6 6 5 5 5 5 5 5 5 5 6 6 6 6 6 5 4 5 5 4 4 4 4 4 4 3 3 2 3 3 4 3 3 3 3 2 2 2 3
7 6 5 6 6 8 7 7 7 6 7 6 5 5 5 4 3 3 3 4 4 4 4 4 4 4 3 3 3 3 3 3 3 3 3 3 2 2 2 2 3 3 2 2 3 2 2 2 2
6 7 6 5 6 6 6 8 6 7 6 6 6 5 4 3 2 2 2 2 3 3 4 4 4 3 3 2 3 3 2 2 2 2 2 2 2 2 2 2 2 2 2 2 2 3 2 2 1
5 6 7 7 6 5 6 8 3 2 3 3 3 3 2 2 2 2 3 3 3 3 3 3 3 3 3 3 3 3 2 2 2 2 2 2 2 2 2 2 2 2 2 2 2 3 2 2 2
Wind_Direction
322 320 34 60 53 51 238 235 172 143 108 108 97 98 104 106 143 159 131 140 137 144 150 149 147 145 144 142 139 138 135 134 131 127 125 121 118 116 111 107 104 103 101 98 96 93 90 87 86
316 325 47 59 84 82 267 243 153 159 162 137 98 94 90 82 98 119 126 146 142 145 149 150 147 146 146 146 144 142 140 137 134 131 129 126 124 122 118 114 110 109 107 106 103 99 94 90 86
320 13 70 72 125 186 208 205 163 149 152 119 86 78 119 149 141 149 153 146 140 144 148 150 149 149 149 149 149 147 143 139 136 133 132 130 129 126 124 121 118 114 111 110 110 106 101 95 85
1 26 51 75 242 226 192 198 169 136 112 91 105 85 91 157 167 150 142 144 140 145 148 153 153 154 154 153 153 153 150 146 142 139 136 135 135 134 132 130 129 125 121 118 116 116 109 103 89
43 62 46 342 263 263 200 183 169 149 156 129 112 113 93 348 131 134 143 145 144 146 149 158 156 157 158 158 158 158 156 154 150 148 146 142 141 141 142 143 141 138 135 132 128 126 121 114 102
40 62 95 242 262 271 230 195 155 152 163 139 119 122 148 142 132 143 146 146 147 149 152 160 159 159 161 162 163 164 164 162 159 158 156 154 154 153 153 154 155 154 152 150 150 146 143 144 144
103 107 192 220 242 257 233 189 155 160 162 171 139 123 148 181 158 144 142 142 145 149 153 158 162 164 166 166 167 168 168 168 167 165 163 161 161 162 161 163 167 169 169 172 174 174 179 189 212
138 123 217 224 216 241 243 177 163 153 175 156 130 145 177 195 165 136 134 139 146 153 159 163 165 165 167 169 173 172 171 171 171 169 167 167 169 168 169 173 182 186 186 187 189 195 207 220 238
117 124 217 220 209 235 264 204 163 150 122 90 108 170 180 153 145 134 136 143 156 165 169 169 171 172 171 173 179 177 177 179 177 176 176 172 174 176 180 190 196 201 199 200 203 210 220 228 246
135 189 218 218 214 227 258 247 192 113 107 91 57 67 126 144 154 157 165 170 173 179 181 178 179 180 177 182 175 178 182 182 180 177 179 178 181 192 197 204 206 208 206 210 216 221 226 233 250
184 206 221 234 247 252 252 279 246 144 183 190 173 161 152 159 166 174 179 180 183 182 183 185 185 184 182 183 176 181 182 182 187 187 188 186 187 198 204 201 210 211 211 215 228 233 231 231 236
211 233 221 234 248 240 239 258 280 202 210 209 178 164 163 171 180 185 187 188 183 182 190 187 186 186 188 184 184 184 187 189 193 197 195 189 190 198 199 201 201 200 202 206 217 225 233 238 241
229 244 239 244 254 252 247 232 238 253 251 175 151 161 174 182 190 195 194 190 187 190 193 191 187 188 188 186 188 189 193 195 197 198 201 196 196 200 199 203 202 205 204 206 215 225 234 240 245
233 239 255 257 255 246 239 258 231 245 226 149 160 178 188 191 193 193 196 198 198 199 198 194 192 192 189 191 193 192 194 195 195 200 201 199 199 198 196 202 206 209 208 210 214 220 227 235 238
243 254 272 251 233 230 207 263 231 228 212 195 194 196 201 205 200 200 201 201 201 200 198 196 196 194 193 196 197 196 195 194 199 203 203 202 200 199 200 204 211 213 208 210 216 224 227 238 241
193 207 240 240 204 203 183 245 245 228 209 224 223 214 212 215 211 209 206 203 201 197 196 199 196 195 198 199 197 197 196 197 202 202 202 205 204 201 201 208 216 212 206 206 212 217 225 237 241
204 213 223 239 208 189 197 240 245 229 211 226 231 227 223 223 223 219 212 207 201 198 196 196 197 197 199 200 198 197 195 202 204 201 204 207 207 204 203 211 214 208 209 212 217 218 217 234 244
198 206 213 216 217 199 220 241 250 242 223 230 234 234 230 226 226 220 213 210 204 199 195 195 197 199 197 193 193 195 203 208 206 206 208 205 208 207 207 212 211 204 211 218 217 222 222 228 237
204 209 224 225 223 208 232 246 247 244 240 237 236 235 234 233 232 223 214 207 200 196 194 195 195 197 189 188 193 199 209 208 208 210 208 208 210 208 209 213 211 209 216 220 216 218 226 233 217
228 238 241 261 246 223 246 256 254 239 235 231 230 232 232 235 238 227 217 206 199 197 196 196 197 195 193 198 196 193 190 201 209 207 210 211 211 211 212 214 214 212 217 220 219 215 217 221 193
228 225 225 229 315 282 274 274 253 246 238 241 235 230 227 223 224 224 217 208 200 200 199 197 198 196 198 195 175 160 158 174 199 212 217 216 212 211 212 215 214 213 214 224 222 217 217 226 214
234 224 219 216 223 253 219 266 257 236 241 239 238 232 230 227 221 216 210 206 201 204 199 195 194 193 194 184 179 184 194 207 214 211 211 207 207 211 211 212 212 213 215 223 223 218 219 218 223
230 191 203 215 221 250 235 255 267 230 236 238 236 234 232 226 218 216 210 200 198 197 190 188 182 185 186 182 186 189 202 215 214 197 202 208 209 212 213 213 213 216 218 221 218 215 217 218 222
200 174 217 211 211 241 224 225 262 218 222 231 232 231 228 225 220 215 205 190 192 190 182 179 173 182 183 181 185 190 200 205 198 202 207 213 213 215 220 217 215 218 220 220 220 217 217 221 222
185 172 201 215 219 238 201 217 248 227 223 222 228 230 227 218 209 203 199 194 190 183 182 179 176 184 185 181 188 194 200 200 203 206 207 207 210 217 225 218 221 223 224 223 218 216 221 220 219
199 189 196 204 214 243 198 225 249 236 230 232 230 224 221 216 205 200 199 191 185 180 177 175 177 183 183 183 191 195 198 198 204 206 203 204 211 216 213 209 217 223 222 220 218 222 226 222 221
189 210 207 214 247 249 235 255 284 262 240 232 226 219 223 216 205 200 198 191 184 178 177 176 173 173 178 182 183 187 193 194 195 197 199 201 205 201 195 198 204 212 213 210 204 213 220 216 222
193 172 176 199 204 233 246 239 239 238 230 231 227 224 232 226 206 195 187 181 175 168 163 156 160 167 170 172 177 174 183 187 188 181 184 190 193 191 181 185 191 195 198 196 191 196 203 190 208
182 189 203 205 206 207 242 252 227 220 218 215 224 220 213 207 196 182 168 150 134 127 134 139 140 139 140 150 159 157 164 170 171 169 172 177 168 158 163 174 176 179 184 187 184 186 172 181 195
199 195 193 212 230 224 244 258 262 237 250 215 217 221 207 187 184 183 170 147 138 135 130 126 125 127 136 134 127 128 125 121 125 131 133 129 132 133 147 149 146 146 157 167 173 178 177 181 185